Location: Godiavel Galaoual
(15.2485°N, 12.6604°W)
Time: 05:14:48
(UTC+00:00)

BUGSAT 1 - Pass Details

Date: 30 July 2021
Orbit: 558 x 601 km, 98.1° (Epoch: 26 September)

Event Time Altitude Azimuth Distance (km) Brightness Sun altitude
Rises 04:41:43 0° 25° (NNE) 2,817 ? -25.2°
Reaches altitude 10° 04:44:02 10° 35° (NE) 1,921 ? -24.8°
Maximum altitude 04:47:49 34° 100° (E) 996 ? -24.0°
Enters shadow 04:50:31 17° 157° (SSE) 1,543 ? -23.4°
